When you browse on this site, cookies collect data to enhance your experience and personalize the content and advertising you see.
Visit our Privacy Policy to learn more. By continuing to use the site, you agree to this use of cookies and data.
  • In Österreich
  • Länderverzeichnis
  • Für 7 Tage
  • Wassertemperatur
  • Wetterkarte
  • News
  • Widgets
  • user-avatar
    Anmelden

    Stündliche Wetter Malanje

    Heute, 13 Dezember, Freitag

    Zeit Temperatur Niederschläge Wind Luftdruck Luftfeuchtigkeit
    00:00 +20°C° 0 mm 1 m/S 665 mmHg 95%
    01:00 +17°C° 0 mm 0 m/S 664 mmHg 95%
    02:00 +17°C° 0.2 mm 0 m/S 664 mmHg 95%
    03:00 +17°C° 0.2 mm 0 m/S 664 mmHg 96%
    04:00 +16°C° 0.2 mm 0 m/S 664 mmHg 96%
    05:00 +17°C° 0.1 mm 0 m/S 664 mmHg 95%
    06:00 +17°C° 0.1 mm 0 m/S 665 mmHg 95%
    07:00 +18°C° 0.1 mm 0 m/S 665 mmHg 95%
    08:00 +21°C° 0 mm 0 m/S 666 mmHg 85%
    09:00 +25°C° 0 mm 1 m/S 666 mmHg 76%
    10:00 +28°C° 0 mm 1 m/S 667 mmHg 67%
    11:00 +29°C° 0 mm 1 m/S 666 mmHg 65%
    12:00 +29°C° 0 mm 1 m/S 666 mmHg 63%
    13:00 +28°C° 0 mm 0 m/S 665 mmHg 61%
    14:00 +29°C° 1.4 mm 1 m/S 664 mmHg 68%
    15:00 +28°C° 1.4 mm 1 m/S 664 mmHg 75%
    16:00 +27°C° 1.4 mm 1 m/S 663 mmHg 82%
    17:00 +25°C° 0.5 mm 1 m/S 663 mmHg 84%
    18:00 +24°C° 0.5 mm 1 m/S 664 mmHg 87%
    19:00 +20°C° 0.5 mm 0 m/S 664 mmHg 90%
    20:00 +22°C° 0.8 mm 1 m/S 664 mmHg 91%
    21:00 +21°C° 0.8 mm 1 m/S 664 mmHg 92%
    22:00 +21°C° 0.8 mm 1 m/S 665 mmHg 94%
    23:00 +21°C° 0.6 mm 1 m/S 665 mmHg 95%

    Morgen, 14 Dezember, Samstag

    Zeit Temperatur Niederschläge Wind Luftdruck Luftfeuchtigkeit
    00:00 +21°C° 0.6 mm 1 m/S 664 mmHg 95%
    01:00 +21°C° 0.6 mm 1 m/S 664 mmHg 96%
    02:00 +20°C° 0.1 mm 1 m/S 664 mmHg 97%
    03:00 +20°C° 0.1 mm 1 m/S 664 mmHg 98%
    04:00 +20°C° 0.1 mm 1 m/S 664 mmHg 99%
    05:00 +20°C° 0.9 mm 1 m/S 665 mmHg 98%
    06:00 +21°C° 0.9 mm 1 m/S 665 mmHg 98%
    07:00 +20°C° 0.9 mm 2 m/S 666 mmHg 98%
    08:00 +21°C° 0.3 mm 1 m/S 666 mmHg 95%
    09:00 +22°C° 0.3 mm 1 m/S 667 mmHg 92%
    10:00 +23°C° 0.3 mm 1 m/S 667 mmHg 89%
    11:00 +22°C° 0.8 mm 1 m/S 666 mmHg 90%
    12:00 +22°C° 0.8 mm 1 m/S 665 mmHg 91%
    13:00 +21°C° 0.8 mm 2 m/S 664 mmHg 91%
    14:00 +22°C° 0.2 mm 1 m/S 664 mmHg 91%
    15:00 +22°C° 0.2 mm 1 m/S 663 mmHg 90%
    16:00 +23°C° 0.2 mm 1 m/S 663 mmHg 89%
    17:00 +22°C° 0 mm 1 m/S 663 mmHg 91%
    18:00 +21°C° 0 mm 1 m/S 664 mmHg 94%
    19:00 +18°C° 0 mm 0 m/S 664 mmHg 97%
    20:00 +20°C° 0.4 mm 1 m/S 664 mmHg 97%
    21:00 +20°C° 0.4 mm 1 m/S 665 mmHg 97%
    22:00 +20°C° 0.4 mm 1 m/S 665 mmHg 98%
    23:00 +20°C° 0.3 mm 1 m/S 665 mmHg 98%

    übermorgen, 15 Dezember, Sonntag

    Zeit Temperatur Niederschläge Wind Luftdruck Luftfeuchtigkeit
    00:00 +19°C° 0.3 mm 1 m/S 665 mmHg 98%
    01:00 +19°C° 0.3 mm 1 m/S 664 mmHg 98%
    02:00 +19°C° 0.1 mm 1 m/S 664 mmHg 98%
    03:00 +19°C° 0.1 mm 1 m/S 664 mmHg 98%
    04:00 +19°C° 0.1 mm 1 m/S 664 mmHg 98%
    05:00 +20°C° 0.1 mm 1 m/S 665 mmHg 98%
    06:00 +20°C° 0.1 mm 1 m/S 665 mmHg 98%
    07:00 +20°C° 0.1 mm 1 m/S 665 mmHg 98%
    08:00 +21°C° 0.1 mm 1 m/S 666 mmHg 96%
    09:00 +21°C° 0.1 mm 1 m/S 666 mmHg 93%
    10:00 +22°C° 0.1 mm 1 m/S 666 mmHg 91%
    11:00 +24°C° 0.8 mm 1 m/S 666 mmHg 87%
    12:00 +25°C° 0.8 mm 1 m/S 666 mmHg 83%
    13:00 +26°C° 0.8 mm 1 m/S 665 mmHg 79%
    14:00 +26°C° 1.1 mm 1 m/S 665 mmHg 81%
    15:00 +26°C° 1.1 mm 1 m/S 664 mmHg 82%
    16:00 +25°C° 1.1 mm 1 m/S 664 mmHg 84%
    17:00 +24°C° 1.2 mm 1 m/S 664 mmHg 88%
    18:00 +22°C° 1.2 mm 1 m/S 664 mmHg 92%
    19:00 +21°C° 1.2 mm 1 m/S 664 mmHg 95%
    20:00 +21°C° 0.2 mm 1 m/S 664 mmHg 96%
    21:00 +21°C° 0.2 mm 1 m/S 665 mmHg 97%
    22:00 +20°C° 0.2 mm 1 m/S 665 mmHg 97%
    23:00 +20°C° 0.1 mm 1 m/S 665 mmHg 97%

    16 Dezember, Montag

    Zeit Temperatur Niederschläge Wind Luftdruck Luftfeuchtigkeit
    00:00 +20°C° 0.1 mm 1 m/S 664 mmHg 97%
    01:00 +20°C° 0.1 mm 1 m/S 664 mmHg 97%
    02:00 +20°C° 0.4 mm 1 m/S 664 mmHg 97%
    03:00 +20°C° 0.4 mm 1 m/S 664 mmHg 97%
    04:00 +20°C° 0.4 mm 1 m/S 664 mmHg 97%
    05:00 +20°C° 0.4 mm 1 m/S 664 mmHg 97%
    06:00 +20°C° 0.4 mm 1 m/S 664 mmHg 97%
    07:00 +20°C° 0.4 mm 1 m/S 665 mmHg 96%
    08:00 +20°C° 0.4 mm 1 m/S 665 mmHg 95%
    09:00 +21°C° 0.4 mm 1 m/S 665 mmHg 93%
    10:00 +19°C° 0.4 mm 0 m/S 665 mmHg 91%
    11:00 +23°C° 0.1 mm 1 m/S 665 mmHg 84%
    12:00 +25°C° 0.1 mm 1 m/S 664 mmHg 77%
    13:00 +26°C° 0.1 mm 1 m/S 664 mmHg 70%
    14:00 +26°C° 0.5 mm 1 m/S 664 mmHg 73%
    15:00 +26°C° 0.5 mm 1 m/S 663 mmHg 76%
    16:00 +26°C° 0.5 mm 1 m/S 663 mmHg 79%
    17:00 +24°C° 0.3 mm 1 m/S 663 mmHg 85%
    18:00 +23°C° 0.3 mm 1 m/S 663 mmHg 90%
    19:00 +21°C° 0.3 mm 1 m/S 663 mmHg 95%
    20:00 +21°C° 0 mm 1 m/S 663 mmHg 95%
    21:00 +20°C° 0 mm 1 m/S 663 mmHg 96%
    22:00 +18°C° 0 mm 0 m/S 664 mmHg 96%
    23:00 +18°C° 0 mm 0 m/S 663 mmHg 96%

    17 Dezember, Dienstag

    Zeit Temperatur Niederschläge Wind Luftdruck Luftfeuchtigkeit
    00:00 +17°C° 0 mm 0 m/S 663 mmHg 97%
    01:00 +19°C° 0 mm 1 m/S 663 mmHg 97%
    02:00 +19°C° 0.7 mm 1 m/S 663 mmHg 97%
    03:00 +19°C° 0.7 mm 1 m/S 663 mmHg 98%
    04:00 +19°C° 0.7 mm 1 m/S 663 mmHg 98%
    05:00 +17°C° 0.4 mm 0 m/S 663 mmHg 98%
    06:00 +18°C° 0.4 mm 0 m/S 664 mmHg 98%
    07:00 +19°C° 0.4 mm 0 m/S 664 mmHg 97%
    08:00 +22°C° 0.4 mm 1 m/S 665 mmHg 94%
    09:00 +23°C° 0.4 mm 1 m/S 665 mmHg 90%
    10:00 +25°C° 0.4 mm 1 m/S 665 mmHg 87%
    11:00 +25°C° 1.4 mm 1 m/S 664 mmHg 85%
    12:00 +26°C° 1.4 mm 1 m/S 664 mmHg 83%
    13:00 +26°C° 1.4 mm 2 m/S 663 mmHg 80%
    14:00 +26°C° 0.7 mm 2 m/S 663 mmHg 82%
    15:00 +26°C° 0.7 mm 2 m/S 662 mmHg 84%
    16:00 +26°C° 0.7 mm 2 m/S 662 mmHg 85%
    17:00 +24°C° 0.4 mm 2 m/S 662 mmHg 88%
    18:00 +23°C° 0.4 mm 1 m/S 662 mmHg 91%
    19:00 +22°C° 0.4 mm 1 m/S 663 mmHg 94%
    20:00 +21°C° 0.1 mm 1 m/S 663 mmHg 94%
    21:00 +21°C° 0.1 mm 1 m/S 663 mmHg 95%
    22:00 +20°C° 0.1 mm 1 m/S 664 mmHg 95%
    23:00 +20°C° 0.1 mm 1 m/S 663 mmHg 96%

    18 Dezember, Mittwoch

    Zeit Temperatur Niederschläge Wind Luftdruck Luftfeuchtigkeit
    00:00 +20°C° 0.1 mm 1 m/S 663 mmHg 97%
    01:00 +20°C° 0.1 mm 1 m/S 663 mmHg 97%
    02:00 +19°C° 0 mm 1 m/S 662 mmHg 98%
    03:00 +19°C° 0 mm 1 m/S 662 mmHg 98%
    04:00 +19°C° 0 mm 1 m/S 662 mmHg 99%
    05:00 +18°C° 0 mm 2 m/S 663 mmHg 98%
    06:00 +19°C° 0 mm 2 m/S 663 mmHg 98%
    07:00 +19°C° 0 mm 2 m/S 664 mmHg 97%
    08:00 +20°C° 0 mm 2 m/S 664 mmHg 91%
    09:00 +21°C° 0 mm 2 m/S 665 mmHg 86%
    10:00 +24°C° 0 mm 2 m/S 665 mmHg 80%
    11:00 +24°C° 0.8 mm 2 m/S 665 mmHg 82%
    12:00 +25°C° 0.8 mm 3 m/S 664 mmHg 83%
    13:00 +25°C° 0.8 mm 3 m/S 664 mmHg 84%
    14:00 +25°C° 1.5 mm 3 m/S 663 mmHg 86%
    15:00 +25°C° 1.5 mm 2 m/S 663 mmHg 88%
    16:00 +24°C° 1.5 mm 2 m/S 662 mmHg 90%
    17:00 +23°C° 0.2 mm 2 m/S 662 mmHg 92%
    18:00 +21°C° 0.2 mm 2 m/S 663 mmHg 94%
    19:00 +21°C° 0.2 mm 1 m/S 663 mmHg 96%
    20:00 +21°C° 0 mm 1 m/S 663 mmHg 96%
    21:00 +20°C° 0 mm 1 m/S 664 mmHg 97%
    22:00 +20°C° 0 mm 1 m/S 664 mmHg 97%
    23:00 +20°C° 0 mm 1 m/S 664 mmHg 97%
    Mehr zeigen